(1021) Flammario
ephemeris date magn radius delta ra dec elong phase
Opposition31 Mar 202414.13.339 AU2.391 AU13h17m+15°22'158.2°6.4°
Today18 Apr 202414.23.365 AU2.453 AU13h03m+16°40'150.7°8.4°
(1021) Flammario - 2024-04-18
astro.vanbuitenen.nl


 
-1 year
-1 month
-1 day
Now
+1 day
+1 month
+1 year

The interactive orbit chart above shows the body's path through the solar system and its position at the given date. Green and blue lines are shown perpendicular to the ecliptic plane: Green if the path is above the ecliptic plane, blue if it is below. (Left-click and drag to rotate the view; Right-click and drag to move the view; Use scroll wheel to zoom in our out.)

The orbital elements of Flammario are:

            e (Eccentricity)                : 0.2842616
            a (Semimajor axis)              : 2.7390195
            i (Inclination)                 : 15.85718
            Ω (Longitude of ascending node) : 115.40416
            ω (Argument of perihelion)      : 286.70005
            M (Mean anomaly)                : 129.92629
            Epoch                           : 2024 Mar 31

            L (Longitude of perihelion)     : 42.72602
            B (Latitude of perihelion)      : -15.17189
            P (Orbital period in years)     : 4.53            
        

The light curve chart below shows the estimated development of the minor planet's magnitude.


The all-sky chart below shows the path of the minor planet over the same period as the light curve. The current position is marked yellow.





The following chart shows the path of the minor planet in the next few days. The field of view is optimized for (~10x50) binoculars and finderscopes. A more printer-friendly version of the same chart can be found below.




Ephemerides:
Date       Time       RA (2000)    DEC (2000)    delta   radius  elong  phase   PA    magn
2024-04-18 00:00 UT   13 03 51.7   +16 40 11     2.453    3.365  150.7    8.4   159   14.2 
2024-04-18 11:06 UT   13 03 30.5   +16 41 25     2.456    3.366  150.4    8.5   158   14.2 
2024-04-19 00:00 UT   13 03 05.9   +16 42 47     2.459    3.367  150.0    8.6   157   14.2 
2024-04-20 00:00 UT   13 02 20.5   +16 45 11     2.465    3.368  149.2    8.8   156   14.3 
2024-04-21 00:00 UT   13 01 35.8   +16 47 22     2.472    3.369  148.4    9.0   154   14.3 
2024-04-22 00:00 UT   13 00 51.7   +16 49 21     2.479    3.371  147.6    9.2   153   14.3 
2024-04-23 00:00 UT   13 00 08.1   +16 51 07     2.486    3.372  146.8    9.4   151   14.3 
2024-04-24 00:00 UT   12 59 25.3   +16 52 41     2.493    3.374  145.9    9.6   150   14.3 
2024-04-25 00:00 UT   12 58 43.2   +16 54 03     2.501    3.375  145.1    9.8   148   14.3 
2024-04-26 00:00 UT   12 58 01.8   +16 55 12     2.508    3.376  144.2   10.0   147   14.3 
2024-04-27 00:00 UT   12 57 21.2   +16 56 09     2.516    3.378  143.3   10.2   146   14.4 
2024-04-28 00:00 UT   12 56 41.3   +16 56 53     2.525    3.379  142.5   10.5   145   14.4 
2024-04-29 00:00 UT   12 56 02.3   +16 57 26     2.533    3.380  141.6   10.7   143   14.4 
2024-04-30 00:00 UT   12 55 24.1   +16 57 46     2.542    3.382  140.7   10.9   142   14.4 
2024-05-01 00:00 UT   12 54 46.8   +16 57 54     2.551    3.383  139.8   11.1   141   14.4 
2024-05-02 00:00 UT   12 54 10.4   +16 57 50     2.560    3.384  138.9   11.3   140   14.4 
2024-05-03 00:00 UT   12 53 34.9   +16 57 35     2.569    3.386  138.0   11.5   139   14.5 
2024-05-04 00:00 UT   12 53 00.3   +16 57 08     2.579    3.387  137.1   11.7   139   14.5 
2024-05-05 00:00 UT   12 52 26.8   +16 56 28     2.588    3.388  136.2   11.9   138   14.5 
2024-05-06 00:00 UT   12 51 54.2   +16 55 38     2.598    3.390  135.2   12.1   137   14.5 
2024-05-07 00:00 UT   12 51 22.6   +16 54 36     2.608    3.391  134.3   12.3   136   14.5 
2024-05-08 00:00 UT   12 50 52.0   +16 53 22     2.619    3.392  133.4   12.5   135   14.5 
2024-05-09 00:00 UT   12 50 22.5   +16 51 57     2.629    3.394  132.5   12.7   134   14.6 
2024-05-10 00:00 UT   12 49 54.1   +16 50 22     2.640    3.395  131.6   12.9   134   14.6 
2024-05-11 00:00 UT   12 49 26.7   +16 48 35     2.651    3.396  130.7   13.0   133   14.6 
2024-05-12 00:00 UT   12 49 00.4   +16 46 38     2.662    3.397  129.7   13.2   132   14.6 
2024-05-13 00:00 UT   12 48 35.2   +16 44 30     2.673    3.399  128.8   13.4   132   14.6 
2024-05-14 00:00 UT   12 48 11.1   +16 42 11     2.684    3.400  127.9   13.6   131   14.6 
2024-05-15 00:00 UT   12 47 48.2   +16 39 43     2.696    3.401  127.0   13.7   130   14.7 
2024-05-16 00:00 UT   12 47 26.3   +16 37 04     2.707    3.403  126.1   13.9   130   14.7 
2024-05-17 00:00 UT   12 47 05.6   +16 34 16     2.719    3.404  125.2   14.1   129   14.7 
2024-05-18 00:00 UT   12 46 46.0   +16 31 18     2.731    3.405  124.3   14.2   129   14.7 


    Terminology:
            
    delta:  distance between minor planet and earth in AU
    radius: distance between minor planet and sun in AU
    magn:   magnitude (brightness) estimate    
    ra:     right ascension in hours (24h = 360deg)
    dec:    declination in degrees
    elong:  elongation in degrees (angle sun-earth-minor planet)    
    phase:  phase angle in degrees (angle sun-minor planet-earth)        
    AU:     Astronomical Unit (mean distance between earth and sun: 149597870.7 km
    

Orbital elements provided by the MPC (Minor Planet Center).
Calculations by a modified version of AAPlus, a C# implementation of the AA+ project by PJ Naughter from the algorithms presented in the book "Astronomical Algorithms" by Jean Meeus.
NGC2000 dso catalog and star labels from VizieR as provided by the Strasbourg astronomical Data Center.
Tycho2 catalog from the ESO archive.